Boerne Stage Field, TX

3:15 PM CST on December 11, 2017 (GMT -0600)
Boerne Stage Field

Weather History for K5C1 - May, 2013

Change the Weather History Date:

Thursday, May 2, 2013

  Actual Average (KSAT) Record (KSAT)
Temperature  
Mean Temperature 58 °F -  
Max Temperature 71 °F 82 °F 99 °F (1964)
Min Temperature 46 °F 63 °F 47 °F (1976)
Degree Days  
Heating Degree Days 6    
Growing Degree Days 8 (Base 50)    
Moisture  
Dew Point 44 °F    
Average Humidity 72    
Maximum Humidity 88    
Minimum Humidity 57    
Precipitation  
Precipitation 0.40 in - - ()
Sea Level Pressure  
Sea Level Pressure 30.18 in    
Wind  
Wind Speed 14 mph (NNW)    
Max Wind Speed 26 mph    
Max Gust Speed 38 mph    
Visibility 10 miles    
Events      
Averages and records for this station are not official NWS values.
T = Trace of Precipitation, MM = Missing Value Source: NWS Daily Summary

Daily Weather History Graph

Daily Weather History Graph

Search for Another Location

Airport or City:

Trip Planner

Search our weather history database for the weather conditions in past years. The results will help you decide how hot, cold, wet, or windy it might be!

Date:

Astronomy

May. 02, 2013 Rise Set
Actual Time 6:51 AM CDT 8:12 PM CDT
Civil Twilight 6:25 AM CDT 8:37 PM CDT
Nautical Twilight 5:55 AM CDT 9:08 PM CDT
Astronomical Twilight 5:24 AM CDT 9:39 PM CDT
Moon 2:06 AM CDT (5/2) 1:34 PM CDT (5/2)
Length of Visible Light 14h 12m
Length of Day
13h 21m
Waning Gibbous, 47% of the Moon is Illuminated
May 2
Waning Gibbous
May 9
New
May 17
First Quarter
May 24
Full
May 31
Last Quarter

Hourly Weather History & Observations

Time (CDT) Temp. Windchill Dew Point Humidity Pressure Visibility Wind Dir Wind Speed Gust Speed Precip Events Conditions
12:15 AM 71.6 °F - 64.4 °F 78% 29.99 in 7.0 mi ENE 3.5 mph - 0.02 in   Overcast
12:35 AM 66.2 °F - 55.4 °F 68% 30.04 in 10.0 mi WNW 11.5 mph 25.3 mph 0.04 in   Overcast
12:55 AM 62.6 °F - 57.2 °F 82% 30.06 in 5.0 mi WNW 4.6 mph - 0.11 in   Overcast
1:15 AM 60.8 °F - 57.2 °F 88% 30.13 in 10.0 mi NNW 15.0 mph 27.6 mph 0.02 in   Overcast
1:35 AM 60.8 °F - 57.2 °F 88% 30.14 in 5.0 mi WNW 9.2 mph 18.4 mph 0.12 in   Overcast
1:55 AM 62.6 °F - 57.2 °F 82% 30.13 in 7.0 mi West 8.1 mph 19.6 mph 0.20 in   Overcast
2:15 AM 62.6 °F - 57.2 °F 82% 30.08 in 10.0 mi South 8.1 mph - 0.04 in   Overcast
2:35 AM 60.8 °F - 57.2 °F 88% 30.07 in 10.0 mi ESE 3.5 mph - 0.06 in   Overcast
2:55 AM 60.8 °F - 57.2 °F 88% 30.05 in 10.0 mi ENE 9.2 mph - 0.08 in   Overcast
3:15 AM 60.8 °F - 55.4 °F 82% 30.01 in 10.0 mi ENE 11.5 mph - 0.01 in   Overcast
3:35 AM 60.8 °F - 55.4 °F 82% 30.03 in 10.0 mi West 6.9 mph - 0.01 in   Mostly Cloudy
3:55 AM 60.8 °F - 57.2 °F 88% 30.00 in 10.0 mi NW 4.6 mph - 0.01 in   Scattered Clouds
4:15 AM 60.8 °F - 55.4 °F 82% 29.97 in 10.0 mi West 6.9 mph - N/A   Scattered Clouds
4:35 AM 60.8 °F - 57.2 °F 88% 29.97 in 10.0 mi Calm Calm - N/A   Overcast
4:55 AM 60.8 °F - 57.2 °F 88% 29.95 in 10.0 mi Calm Calm - N/A   Scattered Clouds
5:15 AM 60.8 °F - 57.2 °F 88% 29.91 in 10.0 mi West 4.6 mph - N/A   Clear
5:35 AM 62.6 °F - 55.4 °F 77% 29.96 in 10.0 mi NNW 17.3 mph 23.0 mph N/A   Clear
5:55 AM 60.8 °F - 55.4 °F 82% 29.99 in 10.0 mi NNW 17.3 mph 27.6 mph N/A   Clear
6:15 AM 59.0 °F - 53.6 °F 82% 30.00 in 10.0 mi NNW 17.3 mph 32.2 mph N/A   Mostly Cloudy
6:35 AM 55.4 °F - 51.8 °F 88% 30.01 in 10.0 mi North 21.9 mph 33.4 mph N/A   Scattered Clouds
6:55 AM 55.4 °F - 51.8 °F 88% 30.02 in 10.0 mi North 21.9 mph 28.8 mph N/A   Scattered Clouds
7:15 AM 55.4 °F - 50.0 °F 82% 30.04 in 10.0 mi North 18.4 mph 29.9 mph N/A   Mostly Cloudy
7:35 AM 53.6 °F - 50.0 °F 88% 30.05 in 10.0 mi North 20.7 mph 31.1 mph N/A   Overcast
7:55 AM 53.6 °F - 48.2 °F 82% 30.08 in 10.0 mi NNW 13.8 mph 27.6 mph N/A   Overcast
8:15 AM 53.6 °F - 48.2 °F 82% 30.08 in 10.0 mi North 17.3 mph 27.6 mph N/A   Overcast
8:35 AM 51.8 °F - 46.4 °F 82% 30.11 in 10.0 mi North 21.9 mph 31.1 mph N/A   Overcast
8:55 AM 51.8 °F - 44.6 °F 76% 30.11 in 10.0 mi North 16.1 mph 26.5 mph N/A   Overcast
9:15 AM 50.0 °F - 44.6 °F 82% 30.12 in 10.0 mi North 20.7 mph 29.9 mph N/A   Overcast
9:35 AM 50.0 °F - 44.6 °F 82% 30.15 in 10.0 mi NNW 23.0 mph 33.4 mph N/A   Overcast
9:55 AM 50.0 °F - 42.8 °F 76% 30.19 in 10.0 mi NNW 19.6 mph 34.5 mph N/A   Overcast
10:15 AM 48.2 °F - 42.8 °F 82% 30.20 in 10.0 mi NNW 23.0 mph 31.1 mph N/A   Overcast
10:35 AM 48.2 °F - 41.0 °F 76% 30.22 in 10.0 mi NNW 13.8 mph 35.7 mph N/A   Overcast
10:55 AM 48.2 °F - 41.0 °F 76% 30.23 in 10.0 mi NNW 19.6 mph 32.2 mph N/A   Overcast
11:15 AM 48.2 °F - 41.0 °F 76% 30.25 in 10.0 mi North 15.0 mph 29.9 mph N/A   Overcast
11:35 AM 50.0 °F - 41.0 °F 71% 30.25 in 10.0 mi North 23.0 mph 28.8 mph N/A   Overcast
11:55 AM 50.0 °F - 41.0 °F 71% 30.25 in 10.0 mi North 19.6 mph 31.1 mph N/A   Overcast
12:15 PM 51.8 °F - 41.0 °F 67% 30.25 in 10.0 mi North 19.6 mph 29.9 mph N/A   Overcast
12:35 PM 53.6 °F - 42.8 °F 67% 30.25 in 10.0 mi North 15.0 mph 27.6 mph N/A   Overcast
12:55 PM 53.6 °F - 42.8 °F 67% 30.26 in 10.0 mi NNW 20.7 mph 31.1 mph N/A   Overcast
1:15 PM 53.6 °F - 42.8 °F 67% 30.26 in 10.0 mi North 20.7 mph 27.6 mph N/A   Overcast
1:35 PM 53.6 °F - 42.8 °F 67% 30.27 in 10.0 mi North 16.1 mph 26.5 mph N/A   Overcast
1:55 PM 53.6 °F - 42.8 °F 67% 30.27 in 10.0 mi North 17.3 mph 29.9 mph N/A   Overcast
2:15 PM 53.6 °F - 41.0 °F 62% 30.27 in 10.0 mi North 17.3 mph 29.9 mph N/A   Overcast
2:35 PM 53.6 °F - 41.0 °F 62% 30.26 in 10.0 mi North 21.9 mph 29.9 mph N/A   Overcast
2:55 PM 51.8 °F - 41.0 °F 67% 30.26 in 10.0 mi North 20.7 mph 31.1 mph N/A   Overcast
3:15 PM 53.6 °F - 41.0 °F 62% 30.25 in 10.0 mi NNW 25.3 mph 35.7 mph N/A   Overcast
3:35 PM 53.6 °F - 41.0 °F 62% 30.25 in 10.0 mi North 23.0 mph 33.4 mph N/A   Overcast
3:55 PM 51.8 °F - 41.0 °F 67% 30.25 in 10.0 mi NNW 24.2 mph 33.4 mph N/A   Overcast
4:15 PM 51.8 °F - 39.2 °F 62% 30.24 in 10.0 mi North 21.9 mph 34.5 mph N/A   Overcast
4:35 PM 51.8 °F - 39.2 °F 62% 30.24 in 10.0 mi North 25.3 mph 34.5 mph N/A   Overcast
4:55 PM 51.8 °F - 37.4 °F 58% 30.25 in 10.0 mi North 19.6 mph 35.7 mph N/A   Overcast
5:15 PM 51.8 °F - 39.2 °F 62% 30.25 in 10.0 mi NNW 20.7 mph 31.1 mph N/A   Overcast
5:35 PM 50.0 °F - 37.4 °F 62% 30.25 in 10.0 mi North 24.2 mph 33.4 mph N/A   Overcast
5:55 PM 50.0 °F - 37.4 °F 62% 30.25 in 10.0 mi North 23.0 mph 32.2 mph N/A   Overcast
6:15 PM 50.0 °F - 37.4 °F 62% 30.26 in 10.0 mi North 24.2 mph 32.2 mph N/A   Overcast
6:35 PM 48.2 °F - 37.4 °F 66% 30.26 in 10.0 mi North 26.5 mph 38.0 mph N/A   Overcast
6:55 PM 48.2 °F - 35.6 °F 62% 30.27 in 10.0 mi North 24.2 mph 33.4 mph N/A   Overcast
7:15 PM 48.2 °F - 35.6 °F 62% 30.27 in 10.0 mi North 19.6 mph 32.2 mph N/A   Overcast
7:35 PM 46.4 °F 39.5 °F 35.6 °F 66% 30.28 in 10.0 mi North 17.3 mph 28.8 mph N/A   Overcast
7:55 PM 46.4 °F 39.5 °F 35.6 °F 66% 30.29 in 10.0 mi North 17.3 mph 36.8 mph N/A   Overcast
8:15 PM 46.4 °F 38.7 °F 33.8 °F 62% 30.29 in 10.0 mi North 20.7 mph 38.0 mph N/A   Overcast
8:35 PM 46.4 °F 39.5 °F 33.8 °F 62% 30.30 in 10.0 mi North 17.3 mph 29.9 mph N/A   Overcast
8:55 PM 46.4 °F 38.5 °F 33.8 °F 62% 30.31 in 10.0 mi North 21.9 mph 29.9 mph N/A   Overcast
9:15 PM 46.4 °F 39.5 °F 33.8 °F 62% 30.31 in 10.0 mi North 17.3 mph 29.9 mph N/A   Overcast
9:35 PM 46.4 °F 39.2 °F 33.8 °F 62% 30.31 in 10.0 mi North 18.4 mph 27.6 mph N/A   Overcast
9:55 PM 46.4 °F 39.8 °F 35.6 °F 66% 30.33 in 10.0 mi North 16.1 mph 23.0 mph N/A   Overcast
10:15 PM 46.4 °F 38.3 °F 33.8 °F 62% 30.33 in 10.0 mi North 23.0 mph 35.7 mph N/A   Overcast
10:35 PM 48.2 °F - 33.8 °F 58% 30.34 in 10.0 mi North 17.3 mph 36.8 mph N/A   Overcast
10:55 PM 48.2 °F - 33.8 °F 58% 30.35 in 10.0 mi North 18.4 mph 32.2 mph N/A   Overcast
11:15 PM 46.4 °F 38.3 °F 32.0 °F 57% 30.35 in 10.0 mi North 23.0 mph 31.1 mph N/A   Overcast
11:35 PM 46.4 °F 39.2 °F 32.0 °F 57% 30.35 in 10.0 mi North 18.4 mph 29.9 mph N/A   Overcast
11:55 PM 46.4 °F 40.4 °F 32.0 °F 57% 30.35 in 10.0 mi North 13.8 mph 24.2 mph N/A   Overcast